Location: Geroldsau
(48.7259°N, 8.2466°E)
Time: 04:40:44
(UTC+00:00)

FENGYUN 1C DEB - Pass Details

Date: 29 January 2022
Orbit: 832 x 1169 km, 98.6° (Epoch: 18 May)

Event Time Altitude Azimuth Distance (km) Brightness Sun altitude
Rises 16:58:45 0° 14° (NNE) 3,500 ? -6.7°
Reaches altitude 10° 17:01:04 10° 15° (NNE) 2,593 ? -7.1°
Maximum altitude 17:06:53 88° 102° (ESE) 963 ? -8.0°
Drops below altitude 10° 17:13:10 10° 196° (SSW) 2,800 ? -9.0°
Sets 17:15:46 0° 197° (SSW) 3,797 ? -9.4°
